< < Back
Terminal Aerodrome Forecast


Current Version              Previous Versions:   1  2  3  4  5  6  7  8  9  

Terminal Aerodrome Forecast

112
FTUS42 KJAX 222300
TAFJAX
TAF
KJAX 222320Z 2300/2324 05005KT P6SM SKC
     FM230200 36003KT P6SM SKC
     FM231400 03009KT P6SM SKC=



Latest METAR

099
SAUS80 KWBC 231500
MTRJAX
METAR KJAX 231456Z 02007KT 10SM FEW030 20/14 A3008 RMK AO2 SLP184
T02000139 50010 $


USA.gov is the U.S. government's official web portal to all federal, state and local government web resources and services.